YAOGAN-39 01B

导读

YAOGAN-39 01B是中国于2023年8月31日发射的遥感三十九号卫星组成星,由长征二号丁运载火箭以“一箭三星”方式送入预定轨道。该卫星属于中国自主研发的高分辨率遥感卫星,具备高清晰度、高灵敏度观测特点,主要用于国土资源调查、生态环境监测,同时可服务于科学试验、防灾减灾与城市规划等领域,将为经济社会发展提供精准空间数据支撑。

基本信息
目录编号:
57728
目录名称:
YAOGAN-39 01B
国际标识:
2023-130B
轨道中心:
EARTH
卫星名称:
YAOGAN-39 01B
卫星全名:
--
卫星状态:
在轨 (已飞行1100 天)
发射日期:
2023-08-31 UTC
国别 :
中国 (CN)
星等 :
--
轨道信息
数据来源 国际轨道数据 AOE轨道数据
星历时间 2026-09-04T03:00:42+0800
21小时前
查看轨道信息
2026-09-04T03:00:00+0800
21小时前
查看轨道信息
半长轴 6893.389km 6893.411km
偏心率 0.0008731 0.0008671
轨道倾角 34.995° 34.996°
近地点辐角 62.189° 62.629°
升交点赤经 22.618° 22.622°
平近点角 297.970° 294.873°
近地点 509.233km 509.296km
远地点 521.271km 521.252km
周期 94.931分钟 94.932分钟
每日圈数 15.168885 15.168811
详细信息
使用方式:
暂无
2D轨道图
3D轨道图
轨道高度分析图
轨道倾角分析图
轨道综合分析图
查看轨道综合分析图
交会数据列表
事件ID 空间交会对象 最接近时刻(TCA) 交会距离 交会风险概率(CRP) 交会风险指数(CRI) 操作
CDM_260904-091505-772806-846624
2026-09-04T
09:15:38+0000
2.729 km
极远距离
1.467428E-6 低风险 0.38
CDM_260905-210605-267905-772821
2026-09-05T
21:06:35+0000
2.511 km
极远距离
8.884396E-7 极低风险 0.34